Weather reports worldwide

Advertisment
Norderney, Germany (10113): temperature & dewpoint: 15.01.2018 04:00:00 - 21.01.2018 04:00:00 (CET)Norderney, Germany (10113): temperature 5cm & temperature -5cm: 15.01.2018 04:00:00 - 21.01.2018 04:00:00 (CET)Norderney, Germany (10113): temperature -20cm & temperature -100cm: 15.01.2018 04:00:00 - 21.01.2018 04:00:00 (CET)Norderney, Germany (10113): wind speed & gusts: 15.01.2018 04:00:00 - 21.01.2018 04:00:00 (CET)Norderney, Germany (10113): wind direction: 15.01.2018 04:00:00 - 21.01.2018 04:00:00 (CET)Norderney, Germany (10113): reduced air pressure: 15.01.2018 04:00:00 - 21.01.2018 04:00:00 (CET)Norderney, Germany (10113): visibility: 15.01.2018 04:00:00 - 21.01.2018 04:00:00 (CET)Norderney, Germany (10113): sunshine duration: 15.01.2018 04:00:00 - 21.01.2018 04:00:00 (CET)Norderney, Germany (10113): precipitation: 15.01.2018 04:00:00 - 21.01.2018 04:00:00 (CET)
Date & Time tt [°C] td [°C] tt 5cm [°C] tt -5cm [°C] tt -20cm [°C] tt -100cm [°C] ff [km/h] ff [kn] fx [km/h] fx [kn] dd ppp [hPa] vv [km] sd [min] rr [mm]
21.01.2018 04:00:00 1,2 0,6 -0,5 0,6 1,7 4,6 7 4 14 8 S 1005,7 70 0 0,8
21.01.2018 03:00:00 1,3 0,4 0,3 0,8 1,8 4,6 14 8 28 15 W 1005,2 2,6 0 0,7
21.01.2018 02:00:00 2,2 0,9 1,3 1,0 1,9 4,6 12 6 20 11 SSW 1003,8 8 0 0,5
21.01.2018 01:00:00 1,9 1,3 1,3 0,8 2,0 4,6 10 5 18 10 SSW 1003,3 11 0 0,0
21.01.2018 00:00:00 1,3 0,9 0,6 0,8 2,1 4,6 10 5 18 10 S 1002,6 6 0 0,0
20.01.2018 23:00:00 0,6 0,3 0,0 1,0 2,3 4,6 9 5 28 15 SSW 1002,2 4,5 0 2,6
20.01.2018 22:00:00 2,3 1,5 1,9 1,9 2,3 4,6 9 5 17 9 SSW 1001,6 5 0 0,0
20.01.2018 21:00:00 2,2 1,3 1,9 1,9 2,3 4,6 12 7 20 11 S 1001,1 6 0 0,0
20.01.2018 20:00:00 2,3 1,4 1,9 2,0 2,3 4,7 12 7 20 11 S 1000,7 5 0 0,0
20.01.2018 19:00:00 2,4 1,5 1,9 2,1 2,3 4,7 11 6 20 11 S 1000,7 6 0 0,0
20.01.2018 18:00:00 2,4 1,6 2,0 2,1 2,3 4,7 11 6 22 12 S 1000,4 4,9 0 0,0
20.01.2018 17:00:00 2,3 1,5 2,0 2,3 2,3 4,7 14 7 26 14 S 1000,5 4,2 0 0,0
20.01.2018 16:00:00 2,2 1,4 2,0 2,4 2,2 4,7 16 9 28 15 S 1000,6 3,6 0 0,0
20.01.2018 15:00:00 1,9 1,4 1,9 2,5 2,1 4,7 16 9 31 17 SSW 1000,6 4,3 0 0,0
20.01.2018 14:00:00 1,6 1,0 1,7 2,6 1,9 4,7 18 10 35 19 SSW 1001,0 3,0 0 0,0
20.01.2018 13:00:00 1,6 1,1 1,6 2,1 1,8 4,7 23 13 36 20 SSW 1001,8 2,7 0 0,0
20.01.2018 12:00:00 1,6 0,9 1,5 1,8 1,6 4,7 22 12 38 21 SSW 1002,5 3,2 10 0,0
20.01.2018 11:00:00 1,8 1,0 1,3 1,5 1,5 4,7 18 10 34 18 S 1002,6 5 2 0,0
20.01.2018 10:00:00 1,9 0,9 2,0 0,8 1,5 4,7 19 11 34 18 SSW 1002,8 11 28 0,0
20.01.2018 09:00:00 1,1 0,5 0,4 0,7 1,5 4,7 17 9 32 17 S 1002,9 6 0 0,1
20.01.2018 08:00:00 1,2 0,5 0,8 0,6 1,6 4,7 19 10 35 19 SSW 1003,1 6 0 0,0
20.01.2018 07:00:00 1,0 0,4 0,2 0,4 1,6 4,7 19 10 35 19 S 1003,1 4,8 0 0,0
20.01.2018 06:00:00 1,4 0,7 0,7 0,7 1,7 4,7 19 11 34 19 S 1003,5 6 0 0,0
20.01.2018 05:00:00 1,6 0,9 0,7 0,7 1,8 4,7 19 10 38 21 SSW 1003,9 13 0 0,0
20.01.2018 04:00:00 1,9 0,9 1,4 0,8 1,8 4,7 22 12 32 17 SW 1004,3 29 0 0,0
20.01.2018 03:00:00 2,1 1,0 1,2 0,8 1,9 4,7 21 12 33 18 SSW 1004,5 17 0 0,3
20.01.2018 02:00:00 2,2 1,0 1,6 1,0 1,9 4,7 22 12 35 19 SW 1004,9 14 0 0,0
20.01.2018 01:00:00 2,0 0,6 1,4 0,9 2,0 4,7 23 12 39 21 SW 1005,2 9 0 0,0
20.01.2018 00:00:00 2,5 1,0 1,1 0,9 2,1 4,7 22 12 37 20 SW 1004,9 33 0 0,0
19.01.2018 23:00:00 2,6 1,2 1,5 1,4 2,2 4,7 25 13 38 20 SW 1005,0 22 0 0,1
19.01.2018 22:00:00 2,7 1,1 1,8 1,3 2,2 4,7 13 7 29 16 WSW 1005,2 10 0 0,1
19.01.2018 21:00:00 2,5 1,1 1,5 1,3 2,4 4,7 19 11 35 19 SW 1005,0 35 0 0,0
19.01.2018 20:00:00 2,7 1,0 1,5 1,5 2,5 4,8 21 12 36 19 SW 1004,8 33 0 0,0
19.01.2018 19:00:00 3,0 1,4 1,8 1,9 2,6 4,8 16 9 43 23 SSW 1004,8 30 0 0,0
19.01.2018 18:00:00 3,4 0,9 2,1 1,8 2,7 4,8 22 12 36 19 SW 1004,8 49 0 0,0
19.01.2018 17:00:00 3,6 1,5 2,3 2,5 2,8 4,8 20 11 40 21 SW 1004,7 39 0 0,0
19.01.2018 16:00:00 3,7 1,2 3,0 3,2 2,7 4,8 15 8 29 16 WSW 1004,8 36 0 0,0
19.01.2018 15:00:00 3,4 2,0 2,7 3,2 2,6 4,8 16 9 37 20 SW 1004,5 32 24 1,0
19.01.2018 14:00:00 4,3 2,8 5,0 3,8 2,3 4,8 19 10 37 20 SW 1004,1 21 28 0,3
19.01.2018 13:00:00 3,9 2,5 4,4 3,2 2,0 4,8 21 12 36 19 SW 1004,0 18 25 0,1
19.01.2018 12:00:00 3,4 1,8 3,1 2,6 1,7 4,8 21 12 33 18 SW 1004,1 38 21 0,0
19.01.2018 11:00:00 3,1 2,0 3,6 1,7 1,6 4,8 20 11 34 19 SW 1003,8 21 26 0,0
19.01.2018 10:00:00 2,7 1,8 2,6 1,0 1,5 4,8 23 12 35 19 SW 1003,4 15 10 0,0
19.01.2018 09:00:00 2,4 1,4 1,1 0,6 1,5 4,8 19 10 29 15 SW 1002,9 56 0 0,1
19.01.2018 08:00:00 2,9 1,5 2,1 0,7 1,5 4,8 19 10 34 18 WSW 1002,3 19 0 0,1
19.01.2018 07:00:00 2,7 1,4 1,7 0,4 1,5 4,8 16 9 35 19 WSW 1001,8 26 0 0,0
19.01.2018 06:00:00 2,1 1,2 0,7 0,2 1,6 4,8 16 9 25 13 SW 1001,3 15 0 0,0
19.01.2018 05:00:00 2,4 1,4 1,5 0,6 1,7 4,9 23 12 37 20 SW 1001,0 18 0 0,0
19.01.2018 04:00:00 2,5 1,5 1,2 0,6 1,8 4,9 20 11 30 16 SW 1000,6 32 0 0,0
19.01.2018 03:00:00 3,1 1,7 2,2 0,7 1,8 4,9 17 9 26 14 SW 1000,4 38 0 0,0
19.01.2018 02:00:00 4,1 1,0 1,7 0,8 1,9 4,9 16 8 26 14 WNW 1000,1 10 0 0,0
19.01.2018 01:00:00 3,2 1,8 1,7 0,6 2,0 4,9 17 9 24 13 SW 999,8 27 0 0,0
19.01.2018 00:00:00 2,9 1,3 1,2 0,8 2,1 4,9 13 7 23 12 SW 999,5 27 0 0,0
18.01.2018 23:00:00 3,6 1,9 1,9 1,1 2,2 4,9 13 7 30 16 WSW 999,1 10 0 0,0
18.01.2018 22:00:00 3,9 1,6 2,0 1,3 2,3 4,9 24 13 40 21 WNW 998,6 13 0 0,0
18.01.2018 21:00:00 3,7 1,8 1,8 1,4 2,5 4,9 27 15 33 18 W 998,1 16 0 0,0
18.01.2018 20:00:00 3,1 1,7 1,5 2,0 2,5 4,9 16 9 44 24 WNW 997,5 14 0 0,5
18.01.2018 19:00:00 2,9 1,7 1,6 2,2 2,6 4,9 19 10 35 19 NW 996,8 20 0 0,5
18.01.2018 18:00:00 3,1 2,0 2,0 2,3 2,6 4,9 20 11 49 26 WNW 996,1 20 0 0,9
18.01.2018 17:00:00 3,1 1,9 2,5 2,7 2,6 4,9 30 16 58 31 NW 995,2 13 0 0,0
18.01.2018 16:00:00 4,2 1,9 3,2 3,0 2,5 4,9 34 18 44 24 NW 993,6 16 0 0,0
18.01.2018 15:00:00 3,9 2,0 3,3 2,9 2,3 4,9 40 22 63 34 NNW 992,1 11 0 0,0
18.01.2018 14:00:00 3,8 1,9 3,3 2,6 2,1 4,9 59 32 77 42 N 988,9 12 0 0,1
18.01.2018 13:00:00 3,0 1,6 2,5 2,1 1,9 4,9 64 35 78 42 N 983,7 7 0 0,1
18.01.2018 12:00:00 3,4 2,5 2,8 1,7 1,8 5,0 37 20 46 25 NNE 977,3 7 0 2,8
18.01.2018 11:00:00 3,4 3,1 2,8 0,6 2,0 5,0 16 9 30 16 S 976,3 4,3 0 2,4
18.01.2018 10:00:00 2,1 1,8 1,4 0,7 2,1 5,0 21 11 53 29 SSE 977,4 4,3 0 1,0
18.01.2018 09:00:00 0,5 0,5 0,0 0,9 2,3 5,0 26 14 47 25 SE 979,7 3,8 0 1,1
18.01.2018 08:00:00 0,3 0,2 0,0 1,1 2,5 5,0 24 13 40 22 SE 982,9 1,6 0 3,0
18.01.2018 07:00:00 1,5 0,8 0,5 2,0 2,5 5,0 27 14 39 21 SSE 987,5 4,3 0 1,3
18.01.2018 06:00:00 2,7 1,5 2,2 2,2 2,5 5,0 23 12 40 21 S 990,8 11 0 0,2
18.01.2018 05:00:00 3,3 1,4 2,7 2,1 2,5 5,0 26 14 39 21 S 993,5 26 0 0,0
18.01.2018 04:00:00 3,7 1,5 2,8 2,0 2,6 5,0 24 13 40 22 SSW 995,4 26 0 0,0
18.01.2018 03:00:00 3,7 1,5 2,7 2,1 2,6 5,0 24 13 51 27 SW 997,0 25 0 0,0
18.01.2018 02:00:00 4,0 1,7 2,9 2,1 2,6 5,0 26 14 41 22 SW 998,2 19 0 0,0
18.01.2018 01:00:00 3,5 2,2 2,5 2,0 2,6 5,0 20 11 53 28 WSW 999,3 8 0 1,3
18.01.2018 00:00:00 4,2 1,2 3,0 2,6 2,6 5,0 34 18 53 29 WSW 999,5 16 0 0,1
17.01.2018 23:00:00 4,1 2,0 3,0 2,5 2,5 5,0 36 19 58 32 W 999,4 9 0 0,2
17.01.2018 22:00:00 4,7 1,5 3,0 2,2 2,5 5,0 36 19 55 30 W 999,2 9 0 0,1
17.01.2018 21:00:00 3,8 1,5 2,8 2,1 2,5 5,0 50 27 69 38 W 999,0 9 0 0,7
17.01.2018 20:00:00 1,7 0,2 1,4 2,1 2,5 5,0 56 30 75 41 NW 998,8 1,4 0 0,0
17.01.2018 19:00:00 3,8 1,8 2,4 1,7 2,6 5,0 21 11 50 27 W 998,6 9 0 0,1
17.01.2018 18:00:00 2,8 1,1 2,3 2,2 2,7 5,0 45 24 67 36 WNW 998,0 8 0 0,4
17.01.2018 17:00:00 3,4 0,4 2,5 2,3 2,7 5,0 56 30 72 39 WNW 997,1 21 0 0,1
17.01.2018 16:00:00 3,4 1,3 3,1 2,7 2,7 5,0 50 27 63 34 W 995,8 16 0 0,1
17.01.2018 15:00:00 3,7 0,7 2,6 2,6 2,7 5,0 16 9 43 23 W 994,8 15 16 0,0
17.01.2018 14:00:00 2,6 0,7 2,4 2,9 2,5 5,0 34 18 52 28 NW 994,0 8 5 0,1
17.01.2018 13:00:00 4,0 0,8 4,6 2,9 2,4 5,1 38 20 49 27 W 993,3 12 4 0,0
17.01.2018 12:00:00 3,8 0,6 3,1 2,7 2,2 5,1 21 12 45 25 SW 992,8 18 17 0,1
17.01.2018 11:00:00 4,1 0,1 3,4 2,0 2,1 5,1 31 17 58 32 W 992,4 18 0 0,0
17.01.2018 10:00:00 4,1 0,1 2,7 1,6 2,0 5,1 40 22 55 30 W 991,5 13 1 0,0
17.01.2018 09:00:00 4,0 0,7 2,8 1,5 2,0 5,1 33 18 52 28 W 990,6 14 0 0,0
17.01.2018 08:00:00 4,0 1,2 2,6 1,3 2,0 5,1 36 19 50 27 W 989,3 11 0 0,3
17.01.2018 07:00:00 3,6 0,7 1,8 1,2 2,0 5,1 26 14 48 26 W 988,4 11 0 0,0
17.01.2018 06:00:00 3,2 1,1 1,8 1,1 2,0 5,1 12 7 45 25 WSW 988,1 18 0 0,5
17.01.2018 05:00:00 1,8 0,6 1,3 1,1 2,0 5,1 33 18 46 25 W 987,5 9 0 0,5
17.01.2018 04:00:00 1,2 0,4 0,7 0,7 2,2 5,1 40 22 54 29 W 987,1 3,5 0 0,6
17.01.2018 03:00:00 1,7 1,1 0,9 0,8 2,3 5,1 11 6 21 11 SSW 987,0 28 0 1,9
17.01.2018 02:00:00 1,6 1,0 0,9 1,1 2,5 5,0 15 8 36 19 SW 987,3 6 0 2,1
17.01.2018 01:00:00 2,1 0,9 1,5 1,7 2,5 5,0 23 12 42 23 SW 987,8 6 0 0,3
17.01.2018 00:00:00 3,1 1,1 2,0 1,3 2,6 5,0 23 12 53 29 SW 987,8 24 0 0,7
16.01.2018 23:00:00 3,5 0,9 2,7 1,9 2,7 5,0 23 13 45 24 SW 987,7 22 0 0,0
16.01.2018 22:00:00 3,6 1,5 2,6 2,0 2,7 5,0 24 13 42 23 SW 987,9 19 0 0,0
16.01.2018 21:00:00 4,3 1,0 2,9 1,8 2,8 5,0 22 12 35 19 SW 987,8 16 0 0,0
16.01.2018 20:00:00 3,7 1,4 2,5 1,6 2,9 5,0 22 12 43 23 SW 988,0 17 0 0,7
16.01.2018 19:00:00 3,8 0,3 2,3 2,1 3,0 5,0 36 19 57 31 WNW 987,9 18 0 0,5
16.01.2018 18:00:00 3,1 0,9 2,0 2,4 3,1 5,0 26 14 48 26 WSW 988,5 4,7 0 0,0
16.01.2018 17:00:00 4,2 1,4 2,8 2,7 3,2 5,0 24 13 48 26 WSW 988,0 18 0 0,0
16.01.2018 16:00:00 4,0 0,5 2,5 3,1 3,2 5,0 29 15 63 34 WSW 987,7 25 8 0,3
16.01.2018 15:00:00 4,1 0,5 3,1 3,4 3,2 5,0 35 19 55 30 W 987,3 24 11 0,0
16.01.2018 14:00:00 4,2 0,9 3,1 3,4 3,1 5,0 26 14 57 31 W 986,9 20 7 0,3
16.01.2018 13:00:00 3,7 1,2 2,9 3,5 3,0 5,0 38 21 58 31 WNW 986,6 11 5 0,1
16.01.2018 12:00:00 3,6 2,0 2,9 2,6 2,9 5,0 24 13 50 27 W 986,5 10 0 0,6
16.01.2018 11:00:00 3,8 1,7 2,6 2,6 2,9 5,0 18 10 42 23 W 985,8 18 15 0,4
16.01.2018 10:00:00 4,9 1,3 3,7 2,5 2,9 5,0 31 17 44 24 W 985,3 17 11 0,0
16.01.2018 09:00:00 4,2 2,5 2,9 2,5 3,0 5,0 26 14 41 22 SW 985,4 23 0 0,0
16.01.2018 08:00:00 3,7 2,4 2,7 2,4 3,1 5,0 21 11 42 23 SW 985,3 26 0 0,3
16.01.2018 07:00:00 3,6 2,0 2,4 2,7 3,1 5,0 26 14 49 26 SW 985,1 36 0 0,5
16.01.2018 06:00:00 4,1 1,8 2,9 2,9 3,2 5,0 26 14 51 28 SW 985,2 36 0 0,2
16.01.2018 05:00:00 4,3 2,5 3,3 2,9 3,2 5,0 26 14 44 24 SW 985,7 29 0 0,0
16.01.2018 04:00:00 4,7 3,2 3,4 3,2 3,3 5,0 24 13 47 26 SW 986,1 22 0 0,1
16.01.2018 03:00:00 5,1 3,2 3,8 3,6 3,3 5,1 28 15 51 28 SW 986,5 22 0 0,1
16.01.2018 02:00:00 5,3 3,9 4,5 3,8 3,2 5,1 24 13 45 24 SW 986,5 21 0 0,0
16.01.2018 01:00:00 5,8 4,5 5,0 3,9 3,1 5,1 19 10 45 25 WSW 986,0 16 0 0,2
16.01.2018 00:00:00 5,5 4,9 5,2 3,8 3,0 5,1 27 14 49 26 WSW 984,9 3,7 0 0,2
15.01.2018 23:00:00 4,7 4,3 4,4 3,5 2,9 5,1 27 15 54 29 SSW 984,4 7 0 0,8
15.01.2018 22:00:00 4,2 3,3 3,7 3,3 2,8 5,1 32 17 56 30 S 984,7 6 0 1,3
15.01.2018 21:00:00 4,6 3,4 4,0 3,4 2,7 5,1 34 19 56 30 S 986,8 8 0 0,9
15.01.2018 20:00:00 4,8 3,9 4,2 3,4 2,5 5,1 31 17 49 26 S 988,7 10 0 1,0
15.01.2018 19:00:00 4,8 4,0 4,3 3,3 2,4 5,1 31 17 61 33 S 990,1 7 0 0,2
15.01.2018 18:00:00 4,8 3,8 4,2 3,2 2,2 5,1 34 18 57 31 S 991,9 6 0 0,2
15.01.2018 17:00:00 5,1 3,8 4,3 3,0 2,0 5,2 36 19 60 33 S 993,5 7 0 0,2
15.01.2018 16:00:00 5,0 3,3 4,1 2,7 1,7 5,2 34 19 61 33 S 995,0 13 0 0,5
15.01.2018 15:00:00 4,5 2,8 3,7 2,3 1,4 5,2 34 19 54 29 S 996,8 7 0 0,2
15.01.2018 14:00:00 4,0 2,3 3,6 1,7 1,2 5,2 30 16 50 27 S 999,1 9 0 0,0
15.01.2018 13:00:00 3,6 2,1 3,2 0,6 1,1 5,2 31 17 54 29 S 1001,5 8 0 0,1
15.01.2018 12:00:00 3,0 1,8 2,5 0,0 1,1 5,2 32 18 49 26 S 1003,2 5 0 0,1
15.01.2018 11:00:00 3,0 1,2 2,3 0,0 1,1 5,2 29 16 49 26 S 1005,2 7 0 0,0
15.01.2018 10:00:00 2,8 0,4 2,5 0,0 1,1 5,2 29 15 45 24 S 1006,4 8 0 0,0
15.01.2018 09:00:00 2,4 0,1 2,0 0,0 1,1 5,2 29 16 46 25 S 1007,5 8 0 0,0
15.01.2018 08:00:00 1,8 -0,6 1,4 0,0 1,1 5,3 26 14 40 21 S 1008,6 10 0 0,0
15.01.2018 07:00:00 1,2 -1,1 0,9 0,0 1,1 5,3 24 13 39 21 SSE 1009,8 10 0 0,0
15.01.2018 06:00:00 0,9 -1,5 0,7 0,0 1,1 5,3 24 13 40 21 S 1010,9 11 0 0,0
15.01.2018 05:00:00 0,5 -2,0 0,3 -0,1 1,2 5,3 22 12 36 20 SSE 1012,3 11 0 0,0
15.01.2018 04:00:00 -0,1 -2,5 -0,4 -0,1 1,2 5,3 23 13 37 20 SSE 1013,7 10 0 0,0

tt = temperature
td = dewpoint
tt 5cm = temperature 5cm
tt -5cm = temperature -5cm
tt -20cm = temperature -20cm
tt -100cm = temperature -100cm
ff = wind speed
fx = gusts
dd = wind direction
ppp = reduced air pressure
vv = visibility
sd = sunshine duration
rr = precipitation

Next stations